Wind_Speed
32 33 31 32 32 32 32 31 30 30 29 29 28 29 30 26 22 22 27 26 17 7 26 10 6 8 15 19 6 10 1 3 3 4 4 4 3 6 4 4 6 7 6 3 3 2 6 7 4 6 4 5 1 2
31 31 31 31 32 32 31 31 29 29 28 29 29 28 31 26 22 19 21 22 21 19 12 14 15 15 13 25 28 14 9 7 12 4 1 4 3 2 6 3 1 3 6 5 8 6 4 8 3 3 5 3 2 3
31 31 31 31 32 32 31 29 28 27 27 27 27 27 31 26 21 20 16 11 17 14 30 31 21 16 20 28 29 21 12 9 7 6 10 3 3 4 4 5 3 3 5 3 3 4 11 7 9 6 5 2 4 8
32 31 31 31 31 31 31 29 27 26 26 27 25 32 31 26 19 19 17 15 18 3 5 9 7 18 22 31 37 35 31 8 7 8 4 3 3 8 4 4 4 4 10 6 4 5 4 11 13 10 8 8 12 16
32 33 32 31 31 31 30 28 27 27 26 27 28 30 30 21 19 19 17 18 22 21 4 8 17 15 22 23 37 45 27 20 8 3 2 2 6 5 3 3 2 10 7 5 6 15 9 5 19 14 13 15 17 19
33 32 32 32 31 30 29 28 27 27 25 28 28 26 22 18 18 14 6 18 25 22 8 3 7 9 23 23 36 39 26 14 9 2 3 4 6 5 4 4 7 23 20 18 9 10 12 9 18 17 17 20 21 21
33 32 32 32 31 31 30 29 28 26 28 27 26 22 20 15 19 16 5 3 21 20 6 5 5 6 24 25 21 21 25 21 9 5 4 5 4 7 3 5 8 14 19 17 12 14 13 19 14 21 21 24 24 23
33 33 32 32 32 31 30 30 27 24 28 23 20 19 17 13 15 20 15 13 15 26 7 3 3 6 15 11 7 10 8 11 11 2 2 4 6 2 3 7 15 16 19 17 18 18 11 19 23 26 26 27 27 26
34 33 33 33 33 32 32 31 27 24 23 22 20 18 13 12 9 23 22 20 17 14 5 6 3 3 6 7 8 6 5 3 4 4 4 5 2 5 8 14 20 25 24 22 22 13 18 23 29 30 31 30 29 29
34 34 34 34 35 33 33 32 28 26 23 22 21 8 5 10 15 11 10 4 8 11 8 5 5 4 9 4 3 5 4 3 3 3 9 3 4 21 11 16 16 23 25 27 29 24 25 28 33 34 32 30 27 28
36 36 35 35 36 35 33 32 29 27 26 21 9 10 6 11 14 10 8 10 11 7 11 6 13 3 3 4 2 3 3 3 4 4 5 3 4 10 31 23 19 21 23 26 25 21 26 22 37 36 33 28 26 24
38 37 36 37 36 35 34 32 32 32 25 18 10 11 8 13 7 5 5 4 4 6 14 11 8 5 5 6 6 5 3 1 5 9 3 3 4 12 20 35 29 24 26 29 19 20 26 30 33 34 33 30 26 22
39 38 38 38 37 36 35 34 33 30 24 16 6 3 5 8 7 6 8 3 3 10 15 19 7 5 5 5 5 3 4 4 12 2 4 5 5 12 11 18 28 29 30 28 24 26 28 33 33 32 32 28 25 22
40 41 39 39 37 36 37 36 34 31 15 6 7 4 5 5 5 5 5 6 10 14 28 33 14 5 5 3 3 4 1 4 1 3 6 3 17 15 18 22 32 34 32 30 29 30 33 37 35 31 28 26 23 20
46 41 39 35 38 38 37 37 36 30 10 6 6 5 7 11 7 14 16 10 12 24 34 22 10 7 3 3 1 4 2 4 5 5 4 8 23 24 26 31 36 37 35 33 33 36 39 37 35 32 27 24 19 18
47 40 43 41 40 38 39 37 34 24 8 5 7 6 10 5 3 6 17 11 25 30 30 12 4 4 2 3 3 7 8 7 4 3 7 21 27 28 33 36 37 38 37 37 37 39 38 35 33 31 27 21 18 14
49 34 48 45 43 40 41 37 27 11 8 7 8 16 18 20 17 13 22 25 36 33 7 5 5 6 5 3 4 5 6 3 8 13 21 27 31 34 36 38 39 39 38 39 40 39 36 34 31 29 27 22 18 15
50 41 51 49 45 45 42 19 14 11 10 16 6 18 14 21 19 14 15 33 28 29 13 5 9 4 6 7 4 4 9 7 12 22 27 30 32 34 37 41 40 39 40 41 39 38 35 33 29 25 22 21 17 14
49 44 53 51 50 32 12 13 14 7 14 8 14 21 23 26 27 24 29 38 29 29 15 8 4 4 4 6 7 14 21 22 29 30 31 31 34 38 40 40 39 40 41 41 39 36 32 27 24 23 20 18 14 11
43 44 53 53 45 15 7 7 16 5 4 8 10 13 19 19 22 28 37 35 27 17 3 2 3 2 3 7 11 21 29 35 42 40 35 36 37 39 39 40 43 44 43 40 36 33 30 26 22 20 17 14 10 8
41 47 52 48 30 9 5 8 10 9 9 6 8 13 8 14 15 17 20 20 12 5 2 3 3 5 4 7 11 22 31 39 38 39 51 47 42 42 43 44 44 42 40 38 36 31 27 26 24 19 15 12 8 6
54 54 45 34 9 6 5 11 6 10 8 4 4 3 7 5 4 7 10 5 4 4 4 5 9 13 15 17 23 29 37 38 34 42 43 47 48 48 48 46 43 41 38 34 31 31 27 23 20 16 13 10 8 5
56 44 34 14 9 11 4 9 6 8 3 2 1 1 3 3 4 9 4 3 4 6 10 13 13 11 18 22 25 28 30 36 39 44 46 46 47 46 44 42 39 38 36 33 29 27 25 21 17 14 12 9 7 4
45 15 10 11 8 4 5 5 5 5 4 4 2 3 3 4 4 3 3 3 8 14 16 18 19 25 23 22 26 27 30 35 44 46 44 47 47 44 40 39 36 33 32 32 29 25 22 19 16 13 10 8 5 2
9 6 7 3 5 3 3 2 2 2 3 3 2 3 3 4 2 1 3 6 21 21 22 23 23 23 27 29 29 29 30 36 44 47 45 45 45 43 40 35 32 30 28 29 28 24 21 17 15 12 9 6 3 2
4 6 5 6 3 3 4 3 3 3 3 4 3 6 3 2 3 4 4 21 24 29 29 30 31 26 26 29 34 34 36 38 42 46 45 42 39 41 41 39 36 32 26 20 22 22 19 17 14 11 8 4 1 2
4 3 3 3 4 7 3 4 7 4 3 4 3 2 2 3 4 3 12 24 29 33 31 30 28 28 33 35 33 33 35 39 41 41 40 37 35 33 35 36 33 31 28 21 18 16 17 16 14 10 6 2 1 3
4 3 5 5 4 3 4 3 4 6 5 7 7 2 5 4 4 5 7 20 27 34 32 31 29 30 35 37 38 39 40 40 38 38 37 36 34 31 26 23 24 26 25 21 19 18 15 14 12 8 5 4 4 4
5 5 5 4 6 8 5 2 3 2 5 8 4 3 3 1 6 7 14 21 28 35 35 35 33 34 37 36 37 37 41 42 45 46 44 40 36 31 25 26 27 27 26 24 20 17 15 12 10 7 5 5 6 7
4 6 6 3 4 1 2 1 2 5 5 7 9 9 8 8 7 11 22 26 33 35 34 35 37 41 43 42 41 39 36 38 41 44 46 43 39 35 32 29 29 27 25 24 23 22 18 13 10 6 3 3 6 8
4 4 6 5 3 2 8 16 15 12 7 8 9 12 10 10 14 20 25 30 34 34 35 36 39 39 41 44 45 45 43 41 40 38 33 35 34 32 31 28 26 25 24 22 19 17 15 12 9 5 1 2 5 8
4 4 6 3 2 4 6 4 4 5 4 6 5 6 12 6 4 13 24 28 31 33 33 35 38 40 39 40 41 42 44 44 40 31 27 27 28 28 28 28 27 26 25 22 19 16 13 9 6 3 2 5 7 9
10 14 13 6 2 1 3 4 4 4 6 4 3 2 4 3 4 10 21 27 29 29 31 33 35 37 40 42 42 40 37 33 29 23 24 22 24 27 29 29 28 26 23 21 18 14 11 8 5 4 6 8 10 12
Wind_Direction
241 242 238 232 228 225 227 229 229 229 229 223 221 221 215 218 222 225 229 232 238 247 265 287 251 178 170 171 147 203 83 242 50 76 125 199 137 206 123 169 176 163 143 181 84 85 277 193 101 164 195 155 147 58
241 238 230 226 224 224 224 226 226 227 227 220 220 226 208 211 215 222 234 233 241 241 261 256 252 215 220 202 181 170 214 224 189 92 130 111 113 104 152 209 43 200 179 177 179 211 227 198 208 197 159 129 147 144
236 230 226 223 221 221 221 222 223 225 222 217 218 222 204 207 210 220 226 224 212 242 265 274 263 238 223 201 207 190 208 249 219 172 155 147 137 136 154 225 151 232 172 154 98 236 229 219 220 217 194 172 151 155
230 224 221 219 219 219 219 220 220 217 212 217 220 208 205 200 208 218 230 219 214 218 251 281 281 247 219 212 205 208 197 235 227 176 129 136 144 196 189 149 159 183 151 170 257 272 265 229 218 202 182 165 152 150
225 221 219 216 216 216 216 215 214 211 212 221 215 204 200 191 211 222 240 230 210 205 298 296 293 261 213 211 205 211 209 214 209 175 101 178 144 129 61 81 223 189 179 167 216 212 201 203 199 189 179 169 166 158
220 218 215 213 212 212 210 208 206 208 215 209 192 185 185 195 209 219 246 239 211 216 261 286 311 248 210 181 189 187 190 197 225 266 138 155 171 174 140 189 236 207 214 229 228 210 199 166 171 177 171 166 165 163
215 212 209 207 206 205 204 201 201 209 194 183 180 180 183 198 207 195 203 132 198 207 234 278 283 236 196 177 162 171 188 188 193 253 193 152 163 180 130 191 210 205 216 217 212 178 143 162 169 169 169 162 164 160
208 204 202 201 201 199 197 194 197 197 177 177 178 179 189 211 220 232 207 210 196 193 238 223 257 260 171 153 122 148 140 148 189 203 170 159 141 160 258 224 203 201 194 195 188 195 200 178 164 165 166 162 158 154
202 199 197 197 196 193 191 188 192 184 172 173 176 180 191 223 227 235 225 225 173 187 220 188 186 230 160 110 106 114 122 75 141 178 214 160 182 215 221 194 195 194 189 185 183 185 166 171 164 164 165 163 159 155
197 195 194 193 191 188 187 185 185 181 174 169 170 156 185 222 230 242 240 231 208 209 236 225 181 232 154 93 81 117 110 134 153 227 150 162 250 236 224 204 212 201 195 186 163 152 162 165 168 165 165 164 164 158
194 192 190 189 188 187 184 182 178 170 166 163 155 187 199 172 178 185 201 195 208 179 197 210 190 142 90 120 110 60 142 141 158 212 171 216 262 228 227 217 212 206 205 201 211 205 190 185 171 166 163 163 161 158
192 190 187 185 184 185 182 179 176 170 168 173 165 189 204 193 190 188 207 223 215 192 163 160 150 123 120 110 106 141 97 107 197 148 121 249 246 213 207 213 205 196 193 190 191 178 174 172 170 164 161 160 159 155
191 188 185 184 182 183 179 174 177 178 168 162 186 238 228 190 183 209 179 202 203 166 159 150 130 136 96 90 102 123 154 192 132 102 215 228 219 202 193 181 181 182 181 178 168 167 166 164 163 164 158 158 155 150
187 185 183 181 183 182 180 178 178 176 152 163 176 233 242 174 212 199 203 171 194 180 152 152 131 127 113 141 133 125 120 130 142 223 225 240 200 178 170 174 175 170 173 168 162 160 159 159 158 159 159 156 154 148
182 179 179 179 178 179 175 175 180 172 165 180 195 222 232 242 246 219 208 164 177 169 150 142 104 135 147 135 134 110 128 217 214 227 219 200 172 166 162 166 168 164 164 161 159 158 158 158 155 151 151 150 151 146
180 177 184 182 179 175 172 172 172 175 192 217 231 251 287 277 249 191 174 180 163 164 155 145 117 94 180 149 149 209 160 212 236 200 177 161 160 161 162 163 163 161 161 159 158 158 156 155 154 149 146 147 146 144
178 178 183 180 177 171 168 163 168 174 195 227 234 245 259 286 282 252 174 173 164 163 178 138 123 164 131 179 212 178 197 230 176 147 161 167 164 162 161 159 160 160 159 156 155 155 153 153 151 149 147 147 147 143
178 178 175 172 169 166 168 176 173 188 220 229 246 251 249 265 261 241 189 167 169 177 173 179 128 153 180 179 224 210 198 161 153 155 161 164 163 160 161 159 159 159 156 154 154 153 154 153 152 149 150 149 150 145
171 175 172 169 168 156 152 180 185 208 220 224 232 241 243 269 277 230 189 175 180 175 151 154 135 178 196 212 193 177 172 161 150 152 156 161 161 160 160 159 156 155 154 153 153 153 153 155 153 151 151 151 152 145
169 169 168 170 164 151 149 155 191 233 241 223 223 235 246 246 210 190 176 174 176 179 139 143 218 247 210 194 198 201 180 170 157 143 147 155 160 162 161 157 154 153 153 153 153 151 148 148 148 147 148 149 149 143
163 165 168 166 173 190 179 164 184 208 235 250 224 206 205 153 153 155 160 165 171 145 131 170 212 217 205 186 195 184 174 169 159 159 155 155 160 160 158 155 156 157 155 153 152 151 154 154 149 149 149 145 148 154
153 162 159 170 181 208 232 194 198 176 192 237 227 233 104 94 124 140 146 143 109 143 158 172 165 142 141 152 159 169 163 163 159 156 156 156 156 158 158 157 159 157 156 156 157 155 155 152 148 146 147 150 155 160
152 155 153 167 193 204 223 191 198 174 170 126 275 111 67 84 117 126 90 93 119 163 157 159 150 140 141 139 149 155 163 163 157 156 158 159 157 158 158 160 165 159 155 157 159 157 153 148 145 146 153 159 160 163
146 146 161 190 201 195 166 193 196 140 108 76 270 133 99 127 133 74 100 123 146 152 161 155 149 136 135 136 148 153 159 163 156 157 160 157 157 159 162 160 161 161 160 157 160 156 152 148 148 153 158 161 162 205
133 180 173 198 182 128 176 165 143 113 90 212 210 113 142 156 90 76 165 165 163 167 165 158 159 160 149 156 159 160 166 169 162 156 160 165 162 159 158 157 161 164 165 159 157 156 151 150 153 158 161 171 201 260
119 174 165 174 158 156 178 159 182 113 85 6 63 113 125 107 144 211 199 170 171 176 174 170 168 158 165 169 162 165 167 171 166 164 164 169 169 163 158 159 161 160 165 169 158 156 154 155 159 162 168 179 224 312
124 183 161 139 144 116 98 93 89 82 133 190 172 116 128 153 227 241 159 173 177 181 181 180 174 178 174 170 172 169 167 169 169 166 164 168 168 170 171 169 168 161 157 160 157 156 157 156 158 161 161 137 25 345
95 110 132 124 117 178 145 78 128 188 195 168 129 121 157 199 210 159 162 184 186 177 178 179 180 183 177 173 172 169 167 167 166 163 161 163 166 170 172 167 162 157 151 153 152 151 154 154 154 147 125 79 37 8
87 112 119 44 35 33 31 169 189 196 139 163 118 158 155 119 164 166 169 178 181 175 170 170 172 176 172 170 170 170 168 168 164 161 162 161 162 163 165 167 162 157 154 152 152 154 157 157 151 138 109 68 39 19
109 149 108 74 83 322 290 268 147 136 109 107 107 107 89 91 130 167 169 174 175 175 175 175 171 173 169 166 163 166 168 172 174 169 164 166 166 163 166 170 165 161 160 162 163 165 167 166 160 147 115 49 23 11
111 85 83 90 133 76 127 108 106 107 85 81 114 115 120 122 140 164 172 179 179 176 174 172 172 174 170 168 166 163 164 170 175 178 176 168 167 167 167 168 165 164 164 164 165 166 167 166 168 167 164 352 351 349
101 114 123 91 81 112 107 72 72 79 90 106 96 124 125 113 114 164 183 183 180 178 181 179 175 173 173 171 168 168 168 168 174 177 175 172 169 167 164 163 165 166 166 167 169 171 173 176 181 203 274 311 319 322
86 94 99 94 84 118 73 80 52 72 56 79 94 128 94 109 151 170 182 189 191 185 181 181 179 176 173 173 173 170 167 166 167 167 168 170 170 168 166 166 168 170 171 172 175 179 182 190 211 251 282 297 302 307
Height
1419 1423 1427 1432 1437 1442 1447 1452 1456 1461 1465 1470 1475 1480 1484 1489 1493 1495 1496 1501 1502 1503 1494 1493 1493 1494 1496 1500 1507 1513 1518 1515 1517 1528 1533 1541 1542 1541 1543 1542 1545 1549 1564 1575 1580 1587 1565 1534 1537 1541 1539 1537 1538 1538
1411 1415 1420 1425 1430 1435 1440 1446 1450 1455 1459 1464 1469 1474 1479 1484 1489 1491 1493 1496 1500 1502 1492 1488 1488 1487 1490 1494 1501 1507 1509 1507 1505 1516 1525 1530 1537 1542 1539 1547 1539 1545 1540 1548 1550 1546 1531 1531 1533 1534 1535 1535 1536 1537
1403 1408 1413 1418 1424 1429 1435 1440 1445 1450 1455 1460 1465 1469 1474 1480 1485 1488 1491 1495 1497 1497 1493 1489 1483 1488 1487 1490 1496 1502 1506 1506 1502 1501 1505 1514 1519 1527 1539 1537 1533 1532 1532 1539 1538 1528 1528 1530 1532 1533 1533 1535 1536 1538
1396 1401 1407 1412 1418 1424 1429 1435 1440 1445 1450 1455 1460 1465 1471 1476 1482 1485 1487 1491 1493 1495 1492 1481 1481 1480 1483 1485 1489 1495 1499 1502 1501 1499 1499 1508 1516 1514 1522 1519 1524 1525 1528 1531 1532 1527 1527 1527 1528 1530 1532 1534 1536 1539
1389 1395 1401 1407 1413 1419 1425 1431 1436 1441 1447 1451 1456 1461 1468 1473 1479 1482 1484 1485 1489 1496 1486 1480 1477 1475 1477 1478 1482 1489 1496 1502 1500 1498 1498 1507 1504 1509 1515 1518 1522 1516 1518 1526 1526 1515 1517 1520 1523 1527 1530 1533 1536 1538
1382 1389 1395 1401 1408 1414 1420 1427 1433 1438 1443 1448 1452 1459 1465 1471 1476 1480 1481 1479 1483 1489 1493 1481 1474 1470 1472 1475 1479 1486 1490 1494 1494 1496 1498 1499 1498 1502 1515 1517 1504 1504 1506 1509 1511 1513 1516 1518 1521 1525 1528 1533 1537 1540
1376 1383 1390 1396 1403 1410 1417 1423 1429 1435 1440 1446 1451 1457 1464 1468 1471 1474 1476 1477 1480 1486 1488 1480 1474 1468 1469 1471 1475 1481 1486 1491 1496 1499 1497 1496 1498 1499 1505 1508 1498 1499 1503 1506 1508 1510 1515 1517 1520 1524 1528 1532 1538 1542
1370 1378 1385 1392 1399 1406 1413 1421 1427 1431 1438 1444 1450 1457 1462 1466 1469 1471 1473 1473 1475 1482 1483 1476 1472 1465 1461 1463 1471 1476 1481 1486 1493 1495 1496 1495 1498 1499 1501 1490 1492 1495 1498 1503 1505 1507 1510 1513 1519 1523 1528 1532 1538 1543
1366 1373 1381 1388 1396 1403 1411 1419 1425 1431 1437 1445 1451 1455 1460 1464 1466 1466 1470 1469 1472 1478 1472 1469 1469 1460 1457 1458 1467 1474 1479 1486 1492 1493 1495 1497 1498 1495 1482 1484 1486 1487 1491 1495 1502 1506 1509 1512 1516 1522 1526 1533 1536 1543
1361 1369 1378 1386 1394 1402 1410 1418 1425 1432 1438 1444 1450 1455 1459 1459 1464 1468 1469 1469 1467 1466 1465 1460 1459 1455 1454 1459 1468 1474 1477 1486 1492 1491 1491 1494 1487 1477 1478 1480 1481 1484 1487 1490 1497 1504 1508 1512 1516 1521 1527 1533 1538 1543
1358 1367 1375 1384 1392 1401 1409 1417 1425 1431 1437 1442 1447 1451 1454 1457 1462 1464 1463 1463 1454 1452 1453 1451 1454 1451 1457 1460 1468 1471 1477 1481 1488 1488 1490 1487 1482 1465 1471 1474 1476 1480 1482 1488 1492 1495 1501 1504 1510 1518 1527 1534 1540 1544
1355 1364 1373 1382 1391 1399 1407 1416 1423 1428 1434 1440 1445 1449 1451 1451 1452 1453 1450 1445 1439 1436 1439 1446 1449 1451 1455 1458 1465 1473 1476 1483 1482 1484 1489 1482 1462 1456 1458 1461 1468 1474 1479 1485 1492 1495 1501 1507 1513 1519 1526 1534 1541 1545
1353 1362 1372 1381 1389 1398 1406 1415 1422 1429 1434 1441 1446 1447 1446 1432 1438 1438 1434 1432 1430 1427 1429 1434 1445 1451 1454 1458 1465 1470 1475 1478 1479 1484 1475 1463 1452 1453 1454 1457 1464 1470 1477 1484 1490 1496 1501 1508 1517 1522 1528 1536 1541 1545
1350 1361 1370 1379 1388 1397 1405 1413 1420 1427 1435 1439 1442 1443 1435 1422 1419 1417 1414 1413 1414 1418 1424 1431 1441 1448 1453 1458 1461 1465 1471 1472 1479 1474 1464 1448 1446 1449 1451 1455 1460 1468 1477 1483 1489 1496 1503 1510 1518 1525 1531 1536 1541 1545
1348 1359 1369 1378 1386 1395 1404 1412 1419 1427 1432 1434 1435 1430 1417 1409 1408 1406 1408 1407 1410 1416 1421 1430 1439 1446 1455 1457 1458 1467 1472 1470 1463 1454 1444 1437 1440 1444 1449 1455 1462 1469 1477 1484 1490 1497 1505 1512 1519 1527 1534 1539 1543 1546
1346 1360 1366 1375 1385 1395 1404 1413 1420 1426 1428 1428 1423 1416 1409 1406 1405 1407 1405 1407 1409 1416 1423 1424 1435 1443 1450 1450 1454 1454 1456 1456 1440 1433 1433 1436 1441 1445 1451 1457 1465 1472 1478 1485 1493 1500 1507 1514 1521 1527 1535 1540 1544 1548
1343 1347 1359 1372 1384 1395 1403 1409 1416 1420 1424 1419 1411 1408 1409 1410 1407 1403 1397 1403 1409 1414 1416 1419 1425 1431 1443 1445 1445 1442 1443 1430 1428 1429 1433 1438 1442 1448 1453 1459 1467 1475 1481 1489 1496 1505 1511 1518 1524 1529 1534 1541 1545 1548
1337 1346 1358 1371 1383 1392 1402 1406 1410 1413 1411 1406 1405 1402 1403 1407 1405 1401 1398 1401 1406 1407 1409 1411 1414 1424 1427 1428 1431 1425 1424 1427 1427 1429 1435 1442 1447 1452 1458 1463 1471 1478 1485 1493 1500 1507 1514 1520 1525 1530 1536 1540 1544 1548
1336 1347 1359 1370 1378 1386 1394 1402 1404 1403 1400 1400 1400 1401 1399 1400 1398 1398 1395 1398 1400 1403 1406 1409 1412 1415 1416 1413 1408 1409 1412 1417 1425 1434 1441 1447 1450 1455 1463 1469 1475 1482 1490 1497 1504 1510 1517 1523 1527 1531 1536 1541 1544 1547
1342 1352 1363 1372 1382 1388 1392 1396 1399 1397 1393 1391 1391 1390 1390 1395 1391 1392 1393 1396 1401 1405 1404 1407 1407 1406 1405 1405 1407 1408 1413 1418 1422 1431 1442 1447 1453 1461 1469 1473 1479 1486 1493 1500 1507 1513 1519 1525 1530 1534 1538 1541 1545 1547
1347 1358 1369 1378 1383 1385 1385 1386 1389 1391 1391 1389 1386 1387 1386 1384 1387 1390 1393 1395 1398 1401 1405 1406 1408 1407 1405 1407 1408 1409 1414 1420 1424 1425 1427 1440 1454 1462 1470 1477 1483 1491 1496 1502 1508 1515 1521 1526 1529 1534 1538 1541 1544 1547
1343 1359 1370 1381 1383 1383 1382 1382 1383 1384 1386 1383 1381 1378 1376 1383 1387 1388 1391 1393 1398 1401 1402 1404 1408 1406 1407 1409 1411 1415 1418 1422 1428 1432 1438 1446 1453 1463 1472 1477 1486 1493 1498 1504 1510 1516 1522 1527 1530 1534 1538 1541 1544 1545
1347 1359 1370 1376 1379 1378 1377 1376 1376 1375 1377 1378 1379 1377 1380 1383 1385 1389 1391 1394 1398 1399 1400 1404 1405 1405 1408 1411 1415 1419 1423 1426 1430 1436 1445 1453 1461 1469 1475 1481 1490 1493 1500 1508 1515 1519 1522 1526 1530 1534 1538 1541 1543 1544
1356 1361 1367 1369 1368 1368 1370 1371 1371 1370 1373 1377 1381 1379 1382 1384 1386 1388 1391 1395 1397 1399 1402 1404 1403 1406 1412 1415 1420 1424 1428 1431 1434 1443 1451 1455 1464 1473 1480 1486 1493 1499 1504 1509 1515 1519 1523 1526 1530 1535 1539 1541 1542 1543
1357 1364 1364 1363 1363 1367 1368 1368 1369 1371 1375 1376 1375 1378 1381 1383 1386 1389 1393 1394 1395 1399 1401 1403 1406 1411 1409 1418 1423 1428 1433 1436 1438 1444 1455 1461 1467 1475 1482 1488 1497 1504 1507 1510 1515 1519 1523 1527 1532 1536 1539 1541 1542 1541
1353 1355 1356 1355 1360 1361 1363 1366 1364 1364 1369 1371 1372 1376 1379 1381 1384 1381 1384 1386 1391 1395 1398 1401 1404 1407 1416 1420 1422 1428 1433 1438 1443 1450 1458 1465 1470 1473 1479 1489 1497 1503 1509 1513 1514 1518 1523 1527 1533 1536 1538 1540 1540 1539
1351 1352 1351 1351 1353 1352 1359 1360 1360 1364 1372 1376 1375 1376 1377 1378 1380 1379 1379 1382 1386 1391 1396 1399 1403 1409 1414 1419 1427 1433 1437 1442 1449 1455 1462 1470 1477 1483 1486 1488 1494 1501 1507 1512 1516 1519 1524 1528 1532 1536 1538 1538 1538 1538
1343 1346 1349 1354 1356 1359 1357 1357 1363 1370 1369 1366 1370 1372 1373 1374 1377 1377 1378 1381 1384 1390 1396 1402 1406 1412 1417 1424 1429 1433 1438 1445 1452 1460 1468 1476 1482 1488 1493 1497 1501 1504 1508 1513 1517 1521 1526 1529 1532 1535 1536 1537 1537 1536
1347 1349 1350 1355 1351 1352 1357 1362 1362 1362 1363 1363 1367 1375 1376 1376 1375 1376 1379 1382 1386 1391 1397 1401 1408 1414 1420 1427 1432 1438 1441 1444 1449 1457 1465 1473 1479 1487 1494 1499 1501 1505 1509 1513 1518 1523 1527 1530 1532 1534 1535 1535 1535 1534
1348 1353 1355 1360 1364 1366 1364 1363 1360 1360 1361 1362 1364 1371 1374 1375 1377 1380 1382 1385 1388 1392 1398 1403 1407 1412 1417 1423 1430 1439 1445 1450 1457 1459 1462 1470 1477 1484 1491 1497 1500 1504 1508 1513 1518 1522 1526 1529 1531 1532 1533 1533 1533 1533
1344 1345 1351 1359 1365 1366 1364 1363 1363 1364 1365 1365 1367 1372 1375 1379 1382 1384 1386 1388 1392 1396 1400 1405 1410 1415 1418 1423 1427 1434 1443 1453 1460 1466 1472 1476 1479 1485 1491 1496 1500 1504 1510 1515 1519 1523 1526 1528 1529 1530 1531 1531 1531 1531
1349 1350 1353 1359 1363 1365 1365 1365 1367 1369 1371 1373 1374 1375 1379 1381 1384 1386 1388 1390 1393 1397 1402 1406 1410 1415 1422 1429 1435 1440 1444 1450 1459 1468 1473 1477 1481 1487 1491 1495 1501 1507 1512 1516 1519 1522 1525 1526 1527 1528 1529 1529 1529 1529
1350 1352 1354 1359 1364 1366 1367 1366 1367 1370 1372 1375 1378 1378 1378 1379 1381 1384 1386 1390 1395 1399 1404 1409 1415 1419 1424 1431 1437 1443 1451 1458 1464 1469 1474 1479 1484 1488 1492 1497 1503 1508 1512 1515 1518 1521 1522 1524 1525 1526 1526 1527 1527 1526